Voltar ao catálogo

YAOGAN 11

AtivoMilitarSSO
NORAD 37165·PAYLOAD·🇨🇳 China

Lançado Sep 22, 2010 de Jiuquan Satellite Launch Center

Loading…

Próximas Passagens (próximas 24 horas)

TLE

AtualizadoSource: Space-Track

Época: Sep 14, 2026, 13:39 UTC

1 37165U 10047A   26257.56896222  .00000536  00000-0  74226-4 0  9995
2 37165  98.3707 127.8313 0033796 316.6999  43.1557 14.82194935861336

Acompanhe YAOGAN 11 em tempo real com AllMySat

Download on the App Store